Location: Hains Lake
(37.8540°N, 99.8578°W)
Time: 02:42:05
(UTC+00:00)

Transit 2A - Pass Details

Date: 26 April 2021
Orbit: 602 x 957 km, 66.7° (Epoch: 14 May)

Event Time Altitude Azimuth Distance (km) Brightness Sun altitude
Rises 21:33:23 0° 327° (NNW) 2,904 9.1 44.2°
Reaches altitude 10° 21:35:36 10° 323° (NW) 2,024 8.5 43.8°
Maximum altitude 21:40:04 58° 245° (WSW) 782 8.1 43.0°
Drops below altitude 10° 21:44:54 10° 167° (SSE) 2,189 8.5 42.1°
Sets 21:47:23 0° 164° (SSE) 3,165 9.2 41.6°
